This is the latest recevied weather packets stored in our database for station/object KD0KHX-10. If no packets are shown the sender has not sent any weather packets the latest 10 day(s).
| Time | Temp. | Humidity | Pressure | Rain* | Wind** | Luminosity | Snow |
|---|---|---|---|---|---|---|---|
| 1777690203 | 8.33° C | 57% | 1013.4 hPa | 0 mm | - | - | - |
| 1777690173 | 8.33° C | 57% | 1013.4 hPa | 0 mm | - | - | - |
| 1777689603 | 8.89° C | 54% | 1013.2 hPa | 0 mm | - | - | - |
| 1777689303 | 9.44° C | 52% | 1013.3 hPa | 0 mm | - | - | - |
| 1777689003 | 9.44° C | 50% | 1013.1 hPa | 0 mm | - | - | - |
| 1777688973 | 9.44° C | 50% | 1013 hPa | 0 mm | - | - | - |
| 1777688403 | 10° C | 46% | 1012.9 hPa | 0 mm | - | - | - |
| 1777688103 | 10.56° C | 45% | 1012.8 hPa | 0 mm | - | - | - |
| 1777688072 | 10.56° C | 45% | 1012.8 hPa | 0 mm | - | - | - |
| 1777687503 | 11.11° C | 43% | 1012.4 hPa | 0 mm | - | - | - |
| 1777687203 | 11.67° C | 42% | 1012.4 hPa | 0 mm | - | - | - |
| 1777687037 | 11.67° C | 42% | 1012.4 hPa | 0 mm | - | - | - |
| 1777686603 | 12.22° C | 40% | 1012.4 hPa | 0 mm | - | - | - |
| 1777686303 | 12.78° C | 39% | 1012.4 hPa | 0 mm | - | - | - |
| 1777686274 | 12.78° C | 39% | 1012.4 hPa | 0 mm | - | - | - |
| 1777685837 | 13.33° C | 37% | 1012.1 hPa | 0 mm | - | - | - |
| 1777685403 | 13.89° C | 37% | 1012.1 hPa | 0 mm | - | - | - |
| 1777685108 | 14.44° C | 35% | 1011.9 hPa | 0 mm | - | - | - |
| 1777684803 | 14.44° C | 35% | 1011.9 hPa | 0 mm | - | - | - |
| 1777684637 | 14.44° C | 34% | 1011.9 hPa | 0 mm | - | - | - |
| 1777684473 | 15° C | 34% | 1011.8 hPa | 0 mm | - | - | - |
| 1777683903 | 15° C | 32% | 1011.7 hPa | 0 mm | - | - | - |
| 1777683603 | 15° C | 32% | 1011.6 hPa | 0 mm | - | - | - |
| 1777683303 | 15.56° C | 32% | 1011.4 hPa | 0 mm | - | - | - |
| 1777683003 | 15.56° C | 33% | 1011.5 hPa | 0 mm | - | - | - |
* Rain latest hour (hover to see other rain measurements)
** Current wind speed in m/s (hover to see current wind gust speed)